Chicago Executive, IL

10:06 AM CST on December 09, 2019 (GMT -0600)
Chicago Executive

Weather History for KPWK - October, 2019

Change the Weather History Date:

Friday, October 11, 2019

  Actual Average Record
Temperature  
Mean Temperature 54 °F 54 °F  
Max Temperature 68 °F 64 °F 82 °F (2010)
Min Temperature 39 °F 44 °F 28 °F (1996)
Degree Days  
Heating Degree Days 11 12  
Month to date heating degree days 59 110  
Since 1 July heating degree days 66 222  
Cooling Degree Days 0 1  
Month to date cooling degree days 13 11  
Year to date cooling degree days 996 789  
Growing Degree Days 4 (Base 50)    
Moisture  
Dew Point 48 °F    
Average Humidity 79    
Maximum Humidity 90    
Minimum Humidity 53    
Precipitation  
Precipitation 0.69 in 0.09 in 1.28 in (2017)
Month to date precipitation 2.31 1.12  
Year to date precipitation 39.00 26.81  
Sea Level Pressure  
Sea Level Pressure 29.90 in    
Wind  
Wind Speed 10 mph ()    
Max Wind Speed 21 mph    
Max Gust Speed 33 mph    
Visibility 8.7 miles    
Events Rain    
T = Trace of Precipitation, MM = Missing Value Source: Averaged Metar Reports

Daily Weather History Graph

Daily Weather History Graph

Search for Another Location

Airport or City:

Astronomy

Oct. 11, 2019 Rise Set
Actual Time 6:59 AM CDT 6:16 PM CDT
Civil Twilight 6:31 AM CDT 6:44 PM CDT
Nautical Twilight 5:58 AM CDT 7:17 PM CDT
Astronomical Twilight 5:26 AM CDT 7:49 PM CDT
Moon 5:48 PM CDT (10/11) 4:35 AM CDT (10/11)
Length of Visible Light 12h 13m
Length of Day
11h 17m
Waxing Gibbous, 96% of the Moon is Illuminated
Oct 11
Waxing Gibbous
Oct 13
Full
Oct 21
Last Quarter
Oct 27
New
Nov 4
First Quarter

Hourly Weather History & Observations

Time (CDT) Temp. Windchill Dew Point Humidity Pressure Visibility Wind Dir Wind Speed Gust Speed Precip Events Conditions
12:52 AM 66.0 °F - 63.0 °F 90% 29.89 in 10.0 mi SSE 5.8 mph - 0.15 in   Overcast
1:52 AM 66.0 °F - 62.1 °F 87% 29.88 in 10.0 mi SE 8.1 mph - N/A   Partly Cloudy
2:52 AM 66.9 °F - 62.1 °F 84% 29.85 in 10.0 mi SSE 6.9 mph - N/A   Mostly Cloudy
3:52 AM 66.9 °F - 63.0 °F 87% 29.85 in 10.0 mi South 10.4 mph - 0.00 in Rain Light Rain
4:52 AM 68.0 °F - 63.0 °F 84% 29.85 in 10.0 mi South 11.5 mph - 0.00 in   Mostly Cloudy
5:52 AM 68.0 °F - 63.0 °F 84% 29.84 in 10.0 mi South 9.2 mph - 0.00 in   Overcast
6:43 AM 66.9 °F - 62.1 °F 84% 29.85 in 10.0 mi South 9.2 mph - N/A   Overcast
6:52 AM 66.9 °F - 62.1 °F 84% 29.84 in 10.0 mi South 10.4 mph - N/A   Overcast
7:07 AM 66.9 °F - 62.1 °F 84% 29.84 in 10.0 mi South 9.2 mph - N/A   Overcast
7:52 AM 66.9 °F - 61.0 °F 81% 29.82 in 10.0 mi South 8.1 mph - N/A   Mostly Cloudy
8:52 AM 64.9 °F - 61.0 °F 87% 29.83 in 4.0 mi South 12.7 mph - 0.06 in Rain Light Rain
9:16 AM 64.9 °F - 61.0 °F 87% 29.83 in 5.0 mi SSW 6.9 mph - 0.05 in Rain Rain
9:52 AM 62.1 °F - 59.0 °F 90% 29.83 in 4.0 mi WNW 17.3 mph 23.0 mph 0.16 in Rain Light Rain
9:59 AM 57.9 °F - 54.0 °F 87% 29.84 in 3.0 mi WNW 15.0 mph - 0.03 in Rain Rain
10:04 AM 57.9 °F - 53.1 °F 84% 29.84 in 4.0 mi WNW 12.7 mph 21.9 mph 0.04 in Rain Light Rain
10:28 AM 55.9 °F - 52.0 °F 87% 29.86 in 1.8 mi West 11.5 mph 19.6 mph 0.15 in Rain Heavy Rain
10:36 AM 55.0 °F - 51.1 °F 86% 29.86 in 2.5 mi West 13.8 mph 21.9 mph 0.20 in Rain Rain
10:52 AM 54.0 °F - 50.0 °F 86% 29.86 in 3.0 mi WNW 10.4 mph 19.6 mph 0.28 in Rain Light Rain
10:59 AM 54.0 °F - 50.0 °F 86% 29.85 in 10.0 mi WNW 8.1 mph 19.6 mph 0.01 in Rain Light Rain
11:15 AM 54.0 °F - 51.1 °F 90% 29.84 in 10.0 mi WNW 10.4 mph - 0.02 in Rain Light Rain
11:41 AM 54.0 °F - 50.0 °F 86% 29.86 in 10.0 mi WSW 11.5 mph 20.7 mph 0.02 in Rain Light Rain
11:52 AM 53.1 °F - 48.9 °F 86% 29.87 in 10.0 mi WSW 10.4 mph 24.2 mph 0.02 in   Overcast
12:17 PM 52.0 °F - 48.0 °F 86% 29.87 in 10.0 mi West 15.0 mph 24.2 mph N/A   Overcast
12:38 PM 52.0 °F - 46.9 °F 83% 29.87 in 10.0 mi WSW 13.8 mph 20.7 mph N/A   Mostly Cloudy
12:52 PM 51.1 °F - 46.0 °F 83% 29.88 in 10.0 mi West 15.0 mph 23.0 mph 0.00 in Rain Light Rain
1:00 PM 51.1 °F - 46.0 °F 83% 29.88 in 10.0 mi WSW 9.2 mph 23.0 mph 0.00 in   Overcast
1:52 PM 48.9 °F - 42.1 °F 77% 29.89 in 10.0 mi West 16.1 mph 27.6 mph 0.00 in   Overcast
2:52 PM 46.0 °F 38.8 °F 39.9 °F 79% 29.93 in 10.0 mi West 18.4 mph 27.6 mph 0.00 in   Overcast
3:52 PM 45.0 °F 38.9 °F 39.0 °F 80% 29.92 in 9.0 mi West 12.7 mph 24.2 mph 0.01 in Rain Light Rain
4:16 PM 44.1 °F 38.1 °F 37.9 °F 79% 29.93 in 10.0 mi West 11.5 mph 23.0 mph 0.00 in Rain Light Rain
4:44 PM 45.0 °F 39.3 °F 37.9 °F 76% 29.94 in 10.0 mi West 11.5 mph - 0.01 in   Overcast
4:52 PM 45.0 °F 38.2 °F 37.9 °F 76% 29.95 in 10.0 mi West 15.0 mph 24.2 mph 0.01 in   Overcast
5:52 PM 44.1 °F 36.8 °F 35.1 °F 71% 29.98 in 10.0 mi West 16.1 mph 27.6 mph N/A   Overcast
6:26 PM 44.1 °F 37.7 °F 35.1 °F 71% 29.99 in 10.0 mi West 12.7 mph 20.7 mph N/A   Overcast
6:34 PM 44.1 °F 37.7 °F 33.1 °F 65% 30.00 in 10.0 mi West 12.7 mph 25.3 mph N/A   Overcast
6:52 PM 43.0 °F 36.0 °F 30.9 °F 62% 30.01 in 10.0 mi West 13.8 mph 25.3 mph N/A   Overcast
7:52 PM 43.0 °F 35.4 °F 28.0 °F 56% 30.03 in 10.0 mi West 16.1 mph 28.8 mph N/A   Mostly Cloudy
8:52 PM 42.1 °F 34.2 °F 26.1 °F 53% 30.04 in 10.0 mi West 16.1 mph 25.3 mph N/A   Mostly Cloudy
9:52 PM 42.1 °F 34.5 °F 26.1 °F 53% 30.04 in 10.0 mi West 15.0 mph 25.3 mph N/A   Overcast
10:52 PM 41.0 °F 34.3 °F 25.0 °F 53% 30.05 in 10.0 mi West 11.5 mph 21.9 mph N/A   Overcast
11:52 PM 39.9 °F 35.1 °F 24.1 °F 53% 30.05 in 10.0 mi WSW 6.9 mph - N/A   Scattered Clouds